#timestamp,LO_Frequency,Hit,StdDev 
1584468015.5,286047001.4,N
1584468035.3,286047000.5,N
1584468055.1,286046999.1,N
1584468075.9,286046998.1,N
1584468095.7,286047002.0,N
1584468115.6,286047003.3,N
1584468135.4,286047003.4,N
1584468155.2,286047003.0,N
1584468175.1,286047003.3,N
1584468176.0,286047003.3,N
1584468195.8,286047005.4,N
1584468215.6,286047004.6,N
1584468235.5,286047007.4,N
1584468255.3,286047005.6,N
1584468275.2,286047007.4,N
1584468295.9,286047010.3,Y
1584468315.7,286047004.6,P
1584468335.6,286047005.0,P
1584468355.4,286047010.3,P
1584468375.3,286047014.8,Y
1584468395.1,286047012.2,P
1584468396.0,286047012.2,P
1584468415.8,286047011.6,P
1584468435.7,286047007.7,N
1584468455.5,286047008.0,N
1584468475.3,286047006.0,N
1584468495.2,286047003.3,N
1584468515.0,286047005.3,N
1584468515.9,286047005.3,N
1584468535.8,286047007.6,N
1584468555.6,286047007.6,N
1584468575.4,286047003.3,N
1584468595.3,286047001.9,N
1584468615.1,286047002.0,N
1584468635.9,286047005.2,N
1584468655.7,286047005.0,N
1584468675.5,286047003.3,N
1584468695.4,286047006.0,N
1584468715.2,286047005.0,N
1584468735.0,286047006.8,N
1584468735.9,286047006.8,N
1584468755.8,286047004.7,N
1584468775.6,286047005.8,N
1584468795.5,286047009.2,Y
1584468815.3,286047003.9,P
1584468835.1,286047005.0,P
1584468855.9,286047008.5,P
1584468875.7,286047013.6,Y
1584468895.6,286047019.5,P
1584468915.4,286047024.1,P
1584468935.2,286047029.8,P
1584468955.1,286047034.4,Y
1584468956.0,286047034.4,P
1584468975.8,286047013.2,N
1584468995.7,286047014.4,N
1584469015.5,286047019.7,N
1584469035.3,286047017.2,N
1584469055.2,286047013.1,N
1584469075.9,286047011.1,N
1584469095.8,286047012.1,N
1584469115.6,286047014.1,N
1584469135.4,286047017.6,N
1584469155.3,286047014.5,N
1584469175.1,286047016.9,N
1584469195.9,286047016.5,N
1584469215.7,286047014.6,N
1584469235.5,286047020.2,Y
1584469255.4,286046999.7,P
1584469275.2,286047002.1,N
1584469295.1,286047002.7,N
1584469296.0,286047002.7,N
1584469315.8,286047006.4,N
1584469335.6,286047008.8,N
1584469355.5,286047005.0,N
1584469375.3,286047005.2,N
1584469395.2,286047003.1,N
1584469415.9,286047010.2,N
1584469435.7,286047010.4,N
1584469455.6,286047012.5,N
1584469475.4,286047012.9,N
1584469495.3,286047008.7,N
1584469515.1,286047001.9,N
1584469516.0,286047001.9,N
1584469535.9,286047008.7,N
1584469555.7,286047001.1,N
1584469575.5,286046990.1,N
1584469595.4,286046993.4,N
1584469615.2,286046993.6,N
1584469635.1,286046987.9,N
1584469636.0,286046987.9,N
1584469655.8,286046982.9,N
1584469675.6,286046980.9,N
1584469695.5,286046981.2,N
1584469715.3,286046984.6,N
1584469735.1,286046979.8,N
1584469755.9,286046983.3,N
1584469775.7,286046980.7,N
1584469795.6,286046980.4,N
1584469815.4,286046979.1,N
1584469835.2,286046982.7,N
1584469855.1,286046979.6,N
1584469856.0,286046979.6,N
1584469875.8,286046978.0,N
1584469895.7,286046978.1,N
1584469915.5,286046983.2,N
1584469935.3,286046985.4,N
1584469955.2,286046987.3,N
1584469975.0,286046987.2,N
1584469975.9,286046987.2,N
1584469995.8,286046986.4,N
1584470015.6,286046987.4,N
1584470035.4,286046985.9,N
1584470055.3,286046993.7,N
1584470075.1,286047001.8,N
1584470095.9,286047004.6,N
1584470115.7,286047004.0,N
1584470135.5,286046999.9,N
1584470155.4,286047002.5,N
1584470175.2,286047006.0,N
1584470195.0,286047005.0,N
1584470195.9,286047005.0,N
1584470215.8,286047009.9,N
1584470235.6,286047016.8,N
1584470255.5,286047017.5,N
1584470275.3,286047020.0,N
1584470295.1,286047019.1,N
1584470315.9,286047017.8,N
1584470335.7,286047018.9,N
1584470355.6,286047020.7,N
1584470375.4,286047028.1,N
1584470395.2,286047028.9,N
1584470415.1,286047029.8,N
1584470416.0,286047029.8,N
1584470435.8,286047029.7,N
1584470455.7,286047027.8,N
1584470475.5,286047029.3,N
1584470495.3,286047026.3,N
1584470515.2,286047023.2,N
1584470535.0,286047021.1,N
1584470535.9,286047021.1,N
1584470555.7,286047025.4,N
1584470575.6,286047037.0,Y
1584470595.4,286047022.4,P
1584470615.3,286047028.4,P
1584470635.1,286047030.0,P
1584470655.8,286047022.6,Y
1584470675.7,286047001.1,P
1584470695.5,286047003.1,N
1584470715.4,286047004.8,N
1584470735.2,286047001.7,N
1584470755.0,286046998.8,N
1584470755.9,286046998.8,N
1584470775.8,286046991.7,N
1584470795.6,286046994.9,N
1584470815.5,286046997.1,N
1584470835.3,286047004.3,N
1584470855.1,286047006.5,N
1584470875.9,286047011.2,N
1584470895.7,286047003.9,N
1584470915.5,286047001.3,N
1584470935.4,286047002.9,N
1584470955.2,286046999.9,N
1584470975.1,286047004.9,N
1584470976.0,286047004.9,N
1584470995.8,286047010.5,N
1584471015.6,286047016.9,N
1584471035.5,286047014.2,N
1584471055.3,286047013.3,N
1584471075.1,286047018.5,N
1584471095.9,286047016.0,N
1584471115.7,286047018.0,N
1584471135.6,286047017.8,N
1584471155.4,286047016.9,N
1584471175.2,286047019.0,N
1584471195.1,286047020.0,N
1584471196.0,286047020.0,N
1584471215.8,286047026.2,Y
1584471235.6,286047017.0,P
1584471255.5,286047013.8,N
1584471275.3,286047010.0,N
1584471295.2,286047015.4,Y
1584471315.9,286047005.4,P
1584471335.7,286047005.5,N
1584471355.6,286047006.1,N
1584471375.4,286047003.6,N
1584471395.2,286047000.3,N
1584471415.1,286047003.7,N
1584471416.0,286047003.7,N
1584471435.8,286047009.2,N
1584471455.7,286047010.7,Y
1584471475.5,286047003.1,P
1584471495.3,286047001.6,N
1584471515.2,286047000.7,N
1584471535.0,286047000.8,N
1584471535.9,286047000.8,N
1584471555.7,286046999.7,N
1584471575.6,286046998.2,N
1584471595.4,286046999.1,N
